Time,TemperatureF,DewpointF,PressureIn,WindDirection,WindDirectionDegrees,WindSpeedMPH,WindSpeedGustMPH,Humidity,HourlyPrecipIn,Conditions,Clouds,dailyrainin,SoftwareType,DateUTC
2013-01-08 00:00:00,32.5,24.5,30.37,SW,225,0.0,0.0,72,0.00,,,0.00,WeatherCatV1.11B39,2013-01-08 05:00:00,
2013-01-08 00:04:00,32.7,24.7,30.38,SW,225,0.7,0.7,72,0.00,,,0.00,WeatherCatV1.11B39,2013-01-08 05:04:00,
2013-01-08 00:05:00,32.7,24.7,30.37,SW,225,0.7,0.7,72,0.00,,,0.00,WeatherCatV1.11B39,2013-01-08 05:05:00,
2013-01-08 00:07:00,32.9,24.9,30.37,SW,225,0.7,0.7,72,0.00,,,0.00,WeatherCatV1.11B39,2013-01-08 05:07:00,
2013-01-08 00:12:00,32.9,24.5,30.37,SW,225,0.7,0.7,71,0.00,,,0.00,WeatherCatV1.11B39,2013-01-08 05:12:00,
2013-01-08 00:18:00,32.9,24.5,30.37,SW,225,0.7,0.7,71,0.00,,,0.00,WeatherCatV1.11B39,2013-01-08 05:18:00,
2013-01-08 00:23:00,32.9,24.5,30.37,SW,225,0.0,0.0,71,0.00,,,0.00,WeatherCatV1.11B39,2013-01-08 05:23:00,
2013-01-08 00:28:00,32.5,24.2,30.37,SW,225,0.0,0.7,71,0.00,,,0.00,WeatherCatV1.11B39,2013-01-08 05:28:00,
2013-01-08 00:33:00,32.4,24.0,30.36,SW,225,0.0,0.0,71,0.00,,,0.00,WeatherCatV1.11B39,2013-01-08 05:33:00,
2013-01-08 00:39:00,32.2,24.2,30.36,SW,225,0.0,0.7,72,0.00,,,0.00,WeatherCatV1.11B39,2013-01-08 05:39:00,
2013-01-08 00:44:00,32.4,24.4,30.36,SW,225,0.0,0.7,72,0.00,,,0.00,WeatherCatV1.11B39,2013-01-08 05:44:00,
2013-01-08 00:49:00,32.4,24.4,30.36,SW,225,0.7,0.7,72,0.00,,,0.00,WeatherCatV1.11B39,2013-01-08 05:49:00,
2013-01-08 00:54:00,32.9,24.9,30.36,South,180,1.6,1.6,72,0.00,,,0.00,WeatherCatV1.11B39,2013-01-08 05:54:00,
2013-01-08 01:00:00,32.9,24.5,30.36,South,180,0.0,0.7,71,0.00,,,0.00,WeatherCatV1.11B39,2013-01-08 06:00:00,
2013-01-08 01:05:00,33.1,24.4,30.36,South,180,0.7,0.7,70,0.00,,,0.00,WeatherCatV1.11B39,2013-01-08 06:05:00,
2013-01-08 01:10:00,33.3,24.6,30.35,SW,225,0.0,0.7,70,0.00,,,0.00,WeatherCatV1.11B39,2013-01-08 06:10:00,
2013-01-08 01:15:00,33.1,24.4,30.35,SW,225,0.0,0.0,70,0.00,,,0.00,WeatherCatV1.11B39,2013-01-08 06:15:00,
2013-01-08 01:21:00,32.5,23.9,30.36,NE,45,0.0,0.7,70,0.00,,,0.00,WeatherCatV1.11B39,2013-01-08 06:21:00,
2013-01-08 01:26:00,32.2,23.5,30.36,NE,45,0.0,0.0,70,0.00,,,0.00,WeatherCatV1.11B39,2013-01-08 06:26:00,
2013-01-08 01:31:00,31.6,23.7,30.36,NE,45,0.7,0.7,72,0.00,,,0.00,WeatherCatV1.11B39,2013-01-08 06:31:00,
2013-01-08 01:36:00,31.5,23.5,30.36,NE,45,0.0,0.0,72,0.00,,,0.00,WeatherCatV1.11B39,2013-01-08 06:36:00,
2013-01-08 01:42:00,31.1,23.5,30.36,South,180,0.7,0.7,73,0.00,,,0.00,WeatherCatV1.11B39,2013-01-08 06:42:00,
2013-01-08 01:47:00,30.7,23.5,30.36,South,180,0.7,0.7,74,0.00,,,0.00,WeatherCatV1.11B39,2013-01-08 06:47:00,
2013-01-08 01:52:00,30.6,23.3,30.36,South,180,0.0,0.0,74,0.00,,,0.00,WeatherCatV1.11B39,2013-01-08 06:52:00,
2013-01-08 01:57:00,31.1,24.1,30.36,South,180,0.7,1.6,75,0.00,,,0.00,WeatherCatV1.11B39,2013-01-08 06:57:00,
2013-01-08 02:03:00,31.6,24.6,30.36,South,180,0.0,0.0,75,0.00,,,0.00,WeatherCatV1.11B39,2013-01-08 07:03:00,
2013-01-08 02:08:00,32.2,24.8,30.36,South,180,0.0,0.7,74,0.00,,,0.00,WeatherCatV1.11B39,2013-01-08 07:08:00,
2013-01-08 02:13:00,32.2,24.5,30.35,South,180,0.7,0.7,73,0.00,,,0.00,WeatherCatV1.11B39,2013-01-08 07:13:00,
2013-01-08 02:18:00,32.4,24.7,30.36,South,180,0.0,0.0,73,0.00,,,0.00,WeatherCatV1.11B39,2013-01-08 07:18:00,
2013-01-08 02:24:00,32.2,24.5,30.36,South,180,0.7,0.7,73,0.00,,,0.00,WeatherCatV1.11B39,2013-01-08 07:24:00,
2013-01-08 02:29:00,32.0,24.3,30.36,South,180,0.0,0.0,73,0.00,,,0.00,WeatherCatV1.11B39,2013-01-08 07:29:00,
2013-01-08 02:34:00,32.2,24.5,30.36,South,180,0.7,0.7,73,0.00,,,0.00,WeatherCatV1.11B39,2013-01-08 07:34:00,
2013-01-08 02:39:00,32.4,24.7,30.36,South,180,0.7,0.7,73,0.00,,,0.00,WeatherCatV1.11B39,2013-01-08 07:39:00,
2013-01-08 02:45:00,32.2,24.5,30.36,South,180,1.6,2.2,73,0.00,,,0.00,WeatherCatV1.11B39,2013-01-08 07:45:00,
2013-01-08 02:50:00,32.2,24.5,30.35,South,180,1.6,1.6,73,0.00,,,0.00,WeatherCatV1.11B39,2013-01-08 07:50:00,
2013-01-08 02:55:00,32.5,25.2,30.35,South,180,0.7,0.7,74,0.00,,,0.00,WeatherCatV1.11B39,2013-01-08 07:55:00,
2013-01-08 03:00:00,32.5,25.2,30.35,South,180,0.0,0.0,74,0.00,,,0.00,WeatherCatV1.11B39,2013-01-08 08:00:00,
2013-01-08 03:06:00,32.4,24.7,30.35,SE,135,0.0,0.0,73,0.00,,,0.00,WeatherCatV1.11B39,2013-01-08 08:06:00,
2013-01-08 03:11:00,32.0,24.7,30.35,South,180,0.7,0.7,74,0.00,,,0.00,WeatherCatV1.11B39,2013-01-08 08:11:00,
2013-01-08 03:16:00,32.0,24.7,30.35,South,180,0.7,1.6,74,0.00,,,0.00,WeatherCatV1.11B39,2013-01-08 08:16:00,
2013-01-08 03:22:00,31.8,24.8,30.35,South,180,0.7,0.7,75,0.00,,,0.00,WeatherCatV1.11B39,2013-01-08 08:22:00,
2013-01-08 03:27:00,31.6,25.0,30.35,South,180,0.7,0.7,76,0.00,,,0.00,WeatherCatV1.11B39,2013-01-08 08:27:00,
2013-01-08 03:32:00,31.6,25.0,30.35,South,180,0.0,1.6,76,0.00,,,0.00,WeatherCatV1.11B39,2013-01-08 08:32:00,
2013-01-08 03:37:00,31.6,25.0,30.35,South,180,0.7,1.6,76,0.00,,,0.00,WeatherCatV1.11B39,2013-01-08 08:37:00,
2013-01-08 03:43:00,31.8,25.1,30.34,South,180,1.6,1.6,76,0.00,,,0.00,WeatherCatV1.11B39,2013-01-08 08:43:00,
2013-01-08 03:48:00,31.8,25.1,30.34,South,180,2.2,2.2,76,0.00,,,0.00,WeatherCatV1.11B39,2013-01-08 08:48:00,
2013-01-08 03:53:00,31.8,25.1,30.34,South,180,1.6,1.6,76,0.00,,,0.00,WeatherCatV1.11B39,2013-01-08 08:53:00,
2013-01-08 03:58:00,32.0,25.3,30.34,South,180,1.6,2.2,76,0.00,,,0.00,WeatherCatV1.11B39,2013-01-08 08:58:00,
2013-01-08 04:04:00,32.0,25.3,30.34,SSW,202,1.6,1.6,76,0.00,,,0.00,WeatherCatV1.11B39,2013-01-08 09:04:00,
2013-01-08 04:09:00,32.0,25.3,30.34,South,180,1.6,1.6,76,0.00,,,0.00,WeatherCatV1.11B39,2013-01-08 09:09:00,
2013-01-08 04:14:00,32.0,25.3,30.34,South,180,2.2,2.2,76,0.00,,,0.00,WeatherCatV1.11B39,2013-01-08 09:14:00,
2013-01-08 04:19:00,32.0,25.3,30.34,South,180,0.7,1.6,76,0.00,,,0.00,WeatherCatV1.11B39,2013-01-08 09:19:00,
2013-01-08 04:25:00,32.0,25.3,30.34,SSW,202,1.6,1.6,76,0.00,,,0.00,WeatherCatV1.11B39,2013-01-08 09:25:00,
2013-01-08 04:30:00,31.6,25.3,30.34,South,180,1.6,1.6,77,0.00,,,0.00,WeatherCatV1.11B39,2013-01-08 09:30:00,
2013-01-08 04:35:00,31.6,25.3,30.33,SW,225,1.6,1.6,77,0.00,,,0.00,WeatherCatV1.11B39,2013-01-08 09:35:00,
2013-01-08 04:40:00,31.8,25.4,30.33,South,180,1.6,1.6,77,0.00,,,0.00,WeatherCatV1.11B39,2013-01-08 09:40:00,
2013-01-08 04:46:00,31.8,25.4,30.34,South,180,2.2,2.2,77,0.00,,,0.00,WeatherCatV1.11B39,2013-01-08 09:46:00,
2013-01-08 04:51:00,32.0,25.3,30.34,South,180,1.6,1.6,76,0.00,,,0.00,WeatherCatV1.11B39,2013-01-08 09:51:00,
2013-01-08 04:56:00,31.8,25.1,30.35,South,180,0.7,1.6,76,0.00,,,0.00,WeatherCatV1.11B39,2013-01-08 09:56:00,
2013-01-08 05:01:00,31.8,25.1,30.34,South,180,0.7,0.7,76,0.00,,,0.00,WeatherCatV1.11B39,2013-01-08 10:01:00,
2013-01-08 05:07:00,31.6,25.3,30.35,South,180,0.7,1.6,77,0.00,,,0.00,WeatherCatV1.11B39,2013-01-08 10:07:00,
2013-01-08 05:12:00,31.5,25.1,30.35,South,180,0.7,0.7,77,0.00,,,0.00,WeatherCatV1.11B39,2013-01-08 10:12:00,
2013-01-08 05:17:00,31.5,25.1,30.34,South,180,1.6,1.6,77,0.00,,,0.00,WeatherCatV1.11B39,2013-01-08 10:17:00,
2013-01-08 05:22:00,32.0,25.3,30.34,SSW,202,1.6,1.6,76,0.00,,,0.00,WeatherCatV1.11B39,2013-01-08 10:22:00,
2013-01-08 05:28:00,31.8,25.4,30.34,South,180,0.7,0.7,77,0.00,,,0.00,WeatherCatV1.11B39,2013-01-08 10:28:00,
2013-01-08 05:33:00,31.8,25.4,30.34,South,180,0.7,0.7,77,0.00,,,0.00,WeatherCatV1.11B39,2013-01-08 10:33:00,
2013-01-08 05:38:00,31.8,25.4,30.35,South,180,1.6,1.6,77,0.00,,,0.00,WeatherCatV1.11B39,2013-01-08 10:38:00,
2013-01-08 05:43:00,31.8,25.4,30.34,South,180,0.7,1.6,77,0.00,,,0.00,WeatherCatV1.11B39,2013-01-08 10:43:00,
2013-01-08 05:49:00,31.5,25.1,30.34,South,180,1.6,2.2,77,0.00,,,0.00,WeatherCatV1.11B39,2013-01-08 10:49:00,
2013-01-08 05:54:00,31.8,25.4,30.34,South,180,0.7,0.7,77,0.00,,,0.00,WeatherCatV1.11B39,2013-01-08 10:54:00,
2013-01-08 05:59:00,31.8,25.4,30.34,South,180,0.7,1.6,77,0.00,,,0.00,WeatherCatV1.11B39,2013-01-08 10:59:00,
2013-01-08 06:04:00,31.8,25.4,30.34,South,180,0.7,1.6,77,0.00,,,0.00,WeatherCatV1.11B39,2013-01-08 11:04:00,
2013-01-08 06:10:00,32.2,25.5,30.34,South,180,2.2,2.2,76,0.00,,,0.00,WeatherCatV1.11B39,2013-01-08 11:10:00,
2013-01-08 06:15:00,32.5,25.8,30.34,South,180,1.6,1.6,76,0.00,,,0.00,WeatherCatV1.11B39,2013-01-08 11:15:00,
2013-01-08 06:20:00,32.7,26.0,30.34,SE,135,2.2,2.2,76,0.00,,,0.00,WeatherCatV1.11B39,2013-01-08 11:20:00,
2013-01-08 06:25:00,32.9,25.9,30.35,South,180,0.7,0.7,75,0.00,,,0.00,WeatherCatV1.11B39,2013-01-08 11:25:00,
2013-01-08 06:31:00,32.9,25.9,30.35,South,180,1.6,1.6,75,0.00,,,0.00,WeatherCatV1.11B39,2013-01-08 11:31:00,
2013-01-08 06:36:00,33.1,26.0,30.34,South,180,2.2,2.2,75,0.00,,,0.00,WeatherCatV1.11B39,2013-01-08 11:36:00,
2013-01-08 06:41:00,32.9,25.9,30.35,South,180,2.2,2.2,75,0.00,,,0.00,WeatherCatV1.11B39,2013-01-08 11:41:00,
2013-01-08 06:46:00,33.1,26.0,30.35,South,180,1.6,2.2,75,0.00,,,0.00,WeatherCatV1.11B39,2013-01-08 11:46:00,
2013-01-08 06:52:00,33.1,26.0,30.35,South,180,2.2,2.2,75,0.00,,,0.00,WeatherCatV1.11B39,2013-01-08 11:52:00,
2013-01-08 06:57:00,33.3,26.2,30.35,SW,225,3.1,3.1,75,0.00,,,0.00,WeatherCatV1.11B39,2013-01-08 11:57:00,
2013-01-08 07:02:00,33.4,26.4,30.35,South,180,1.6,1.6,75,0.00,,,0.00,WeatherCatV1.11B39,2013-01-08 12:02:00,
2013-01-08 07:07:00,33.6,26.6,30.36,South,180,3.1,3.1,75,0.00,,,0.00,WeatherCatV1.11B39,2013-01-08 12:07:00,
2013-01-08 07:13:00,33.8,26.4,30.35,SE,135,2.2,3.8,74,0.00,,,0.00,WeatherCatV1.11B39,2013-01-08 12:13:00,
2013-01-08 07:18:00,34.0,26.6,30.37,South,180,0.0,2.2,74,0.00,,,0.00,WeatherCatV1.11B39,2013-01-08 12:18:00,
2013-01-08 07:23:00,33.8,26.4,30.37,NW,315,1.6,1.6,74,0.00,,,0.00,WeatherCatV1.11B39,2013-01-08 12:23:00,
2013-01-08 07:28:00,33.6,26.6,30.37,South,180,2.2,2.2,75,0.00,,,0.00,WeatherCatV1.11B39,2013-01-08 12:28:00,
2013-01-08 07:34:00,33.6,26.6,30.37,South,180,2.2,2.2,75,0.00,,,0.00,WeatherCatV1.11B39,2013-01-08 12:34:00,
2013-01-08 07:39:00,33.6,26.6,30.37,South,180,0.7,2.2,75,0.00,,,0.00,WeatherCatV1.11B39,2013-01-08 12:39:00,
2013-01-08 07:44:00,33.8,26.7,30.37,SW,225,2.2,2.2,75,0.00,,,0.00,WeatherCatV1.11B39,2013-01-08 12:44:00,
2013-01-08 07:49:00,33.8,26.7,30.38,South,180,2.2,2.2,75,0.00,,,0.00,WeatherCatV1.11B39,2013-01-08 12:49:00,
2013-01-08 07:55:00,33.8,26.7,30.37,South,180,2.2,2.2,75,0.00,,,0.00,WeatherCatV1.11B39,2013-01-08 12:55:00,
2013-01-08 08:00:00,34.0,26.9,30.38,South,180,2.2,2.2,75,0.00,,,0.00,WeatherCatV1.11B39,2013-01-08 13:00:00,
2013-01-08 08:05:00,34.2,26.8,30.38,South,180,2.2,2.2,74,0.00,,,0.00,WeatherCatV1.11B39,2013-01-08 13:05:00,
2013-01-08 08:10:00,34.2,26.8,30.38,South,180,0.7,1.6,74,0.00,,,0.00,WeatherCatV1.11B39,2013-01-08 13:10:00,
2013-01-08 08:16:00,34.3,27.3,30.38,SW,225,1.6,2.2,75,0.00,,,0.00,WeatherCatV1.11B39,2013-01-08 13:16:00,
2013-01-08 08:21:00,34.5,27.4,30.38,SW,225,3.1,3.1,75,0.00,,,0.00,WeatherCatV1.11B39,2013-01-08 13:21:00,
2013-01-08 08:26:00,34.7,27.6,30.38,South,180,1.6,1.6,75,0.00,,,0.00,WeatherCatV1.11B39,2013-01-08 13:26:00,
2013-01-08 08:31:00,34.7,27.3,30.38,South,180,0.0,0.0,74,0.00,,,0.00,WeatherCatV1.11B39,2013-01-08 13:31:00,
2013-01-08 08:37:00,34.5,27.1,30.38,South,180,0.0,0.0,74,0.00,,,0.00,WeatherCatV1.11B39,2013-01-08 13:37:00,
2013-01-08 08:42:00,34.3,26.9,30.38,East,90,0.7,0.7,74,0.00,,,0.00,WeatherCatV1.11B39,2013-01-08 13:42:00,
2013-01-08 08:47:00,34.3,27.3,30.39,West,270,0.7,0.7,75,0.00,,,0.00,WeatherCatV1.11B39,2013-01-08 13:47:00,
2013-01-08 08:52:00,34.3,27.3,30.38,SW,225,0.7,0.7,75,0.00,,,0.00,WeatherCatV1.11B39,2013-01-08 13:52:00,
2013-01-08 08:58:00,34.5,27.4,30.38,SW,225,0.0,0.0,75,0.00,,,0.00,WeatherCatV1.11B39,2013-01-08 13:58:00,
2013-01-08 09:03:00,35.2,28.1,30.38,NW,315,0.7,0.7,75,0.00,,,0.00,WeatherCatV1.11B39,2013-01-08 14:03:00,
2013-01-08 09:08:00,36.7,29.5,30.38,SE,135,0.7,0.7,75,0.00,,,0.00,WeatherCatV1.11B39,2013-01-08 14:08:00,
2013-01-08 09:13:00,37.9,31.4,30.38,North,0,3.1,3.1,77,0.00,,,0.00,WeatherCatV1.11B39,2013-01-08 14:13:00,
2013-01-08 09:19:00,37.9,31.1,30.38,North,0,1.6,1.6,76,0.00,,,0.00,WeatherCatV1.11B39,2013-01-08 14:19:00,
2013-01-08 09:24:00,38.1,30.9,30.38,WSW,247,0.7,0.7,75,0.00,,,0.00,WeatherCatV1.11B39,2013-01-08 14:24:00,
2013-01-08 09:29:00,38.5,31.3,30.38,SE,135,0.0,0.7,75,0.00,,,0.00,WeatherCatV1.11B39,2013-01-08 14:29:00,
2013-01-08 09:34:00,38.5,31.3,30.38,SE,135,0.7,0.7,75,0.00,,,0.00,WeatherCatV1.11B39,2013-01-08 14:34:00,
2013-01-08 09:40:00,38.8,31.3,30.38,South,180,0.7,1.6,74,0.00,,,0.00,WeatherCatV1.11B39,2013-01-08 14:40:00,
2013-01-08 09:45:00,39.2,31.3,30.38,ESE,112,2.2,2.2,73,0.00,,,0.00,WeatherCatV1.11B39,2013-01-08 14:45:00,
2013-01-08 09:50:00,40.3,31.6,30.38,South,180,2.2,3.1,71,0.00,,,0.00,WeatherCatV1.11B39,2013-01-08 14:50:00,
2013-01-08 09:55:00,40.6,31.6,30.38,SW,225,5.4,5.4,70,0.00,,,0.00,WeatherCatV1.11B39,2013-01-08 14:55:00,
2013-01-08 10:01:00,41.2,31.4,30.38,SSE,157,1.6,2.2,68,0.00,,,0.00,WeatherCatV1.11B39,2013-01-08 15:01:00,
2013-01-08 10:06:00,41.7,31.9,30.38,SSW,202,2.2,2.2,68,0.00,,,0.00,WeatherCatV1.11B39,2013-01-08 15:06:00,
2013-01-08 10:11:00,43.2,32.6,30.38,South,180,1.6,3.1,66,0.00,,,0.00,WeatherCatV1.11B39,2013-01-08 15:11:00,
2013-01-08 10:16:00,44.6,32.8,30.38,South,180,1.6,3.1,63,0.00,,,0.00,WeatherCatV1.11B39,2013-01-08 15:16:00,
2013-01-08 10:22:00,44.6,32.4,30.38,South,180,1.6,2.2,62,0.00,,,0.00,WeatherCatV1.11B39,2013-01-08 15:22:00,
2013-01-08 10:27:00,44.8,32.6,30.38,SE,135,4.5,4.5,62,0.00,,,0.00,WeatherCatV1.11B39,2013-01-08 15:27:00,
2013-01-08 10:32:00,44.6,32.0,30.38,South,180,3.1,3.1,61,0.00,,,0.00,WeatherCatV1.11B39,2013-01-08 15:32:00,
2013-01-08 10:37:00,45.5,32.8,30.38,WNW,292,2.2,3.1,61,0.00,,,0.00,WeatherCatV1.11B39,2013-01-08 15:37:00,
2013-01-08 10:43:00,45.7,33.0,30.38,SE,135,3.1,3.1,61,0.00,,,0.00,WeatherCatV1.11B39,2013-01-08 15:43:00,
2013-01-08 10:48:00,45.5,32.4,30.38,North,0,1.6,1.6,60,0.00,,,0.00,WeatherCatV1.11B39,2013-01-08 15:48:00,
2013-01-08 10:53:00,46.0,32.5,30.37,NE,45,1.6,3.1,59,0.00,,,0.00,WeatherCatV1.11B39,2013-01-08 15:53:00,
2013-01-08 10:58:00,46.0,32.5,30.37,NW,315,2.2,2.2,59,0.00,,,0.00,WeatherCatV1.11B39,2013-01-08 15:58:00,
2013-01-08 11:04:00,46.4,32.9,30.37,SE,135,0.7,3.1,59,0.00,,,0.00,WeatherCatV1.11B39,2013-01-08 16:04:00,
2013-01-08 11:09:00,46.6,32.6,30.37,North,0,2.2,3.8,58,0.00,,,0.00,WeatherCatV1.11B39,2013-01-08 16:09:00,
2013-01-08 11:14:00,46.4,32.4,30.37,North,0,1.6,3.8,58,0.00,,,0.00,WeatherCatV1.11B39,2013-01-08 16:14:00,
2013-01-08 11:19:00,46.8,33.2,30.36,South,180,1.6,1.6,59,0.00,,,0.00,WeatherCatV1.11B39,2013-01-08 16:19:00,
2013-01-08 11:25:00,47.5,33.4,30.36,South,180,1.6,2.2,58,0.00,,,0.00,WeatherCatV1.11B39,2013-01-08 16:25:00,
2013-01-08 11:30:00,48.0,33.1,30.35,South,180,2.2,2.2,56,0.00,,,0.00,WeatherCatV1.11B39,2013-01-08 16:30:00,
2013-01-08 11:35:00,48.4,33.4,30.35,NE,45,3.8,3.8,56,0.00,,,0.00,WeatherCatV1.11B39,2013-01-08 16:35:00,
2013-01-08 11:40:00,48.2,32.8,30.36,East,90,2.2,2.2,55,0.00,,,0.00,WeatherCatV1.11B39,2013-01-08 16:40:00,
2013-01-08 11:46:00,48.7,33.3,30.36,North,0,3.1,3.1,55,0.00,,,0.00,WeatherCatV1.11B39,2013-01-08 16:46:00,
2013-01-08 11:51:00,49.8,33.8,30.36,South,180,2.2,3.1,54,0.00,,,0.00,WeatherCatV1.11B39,2013-01-08 16:51:00,
2013-01-08 11:56:00,50.4,33.9,30.36,North,0,1.6,1.6,53,0.00,,,0.00,WeatherCatV1.11B39,2013-01-08 16:56:00,
2013-01-08 12:01:00,51.6,34.1,30.36,North,0,1.6,1.6,51,0.00,,,0.00,WeatherCatV1.11B39,2013-01-08 17:01:00,
2013-01-08 12:07:00,52.5,33.4,30.36,South,180,1.6,1.6,48,0.00,,,0.00,WeatherCatV1.11B39,2013-01-08 17:07:00,
2013-01-08 12:12:00,53.6,33.9,30.36,SW,225,1.6,1.6,47,0.00,,,0.00,WeatherCatV1.11B39,2013-01-08 17:12:00,
2013-01-08 12:17:00,53.8,31.8,30.35,South,180,2.2,3.8,43,0.00,,,0.00,WeatherCatV1.11B39,2013-01-08 17:17:00,
2013-01-08 12:22:00,52.9,32.7,30.35,NNW,337,1.6,1.6,46,0.00,,,0.00,WeatherCatV1.11B39,2013-01-08 17:22:00,
2013-01-08 12:28:00,53.1,32.8,30.35,SW,225,0.7,3.8,46,0.00,,,0.00,WeatherCatV1.11B39,2013-01-08 17:28:00,
2013-01-08 12:33:00,53.4,33.2,30.34,SSW,202,1.6,1.6,46,0.00,,,0.00,WeatherCatV1.11B39,2013-01-08 17:33:00,
2013-01-08 12:38:00,54.3,32.9,30.34,South,180,1.6,1.6,44,0.00,,,0.00,WeatherCatV1.11B39,2013-01-08 17:38:00,
2013-01-08 12:43:00,55.4,34.4,30.34,West,270,0.7,0.7,45,0.00,,,0.00,WeatherCatV1.11B39,2013-01-08 17:43:00,
2013-01-08 12:49:00,56.5,34.8,30.33,NW,315,3.8,3.8,44,0.00,,,0.00,WeatherCatV1.11B39,2013-01-08 17:49:00,
2013-01-08 12:54:00,55.0,32.4,30.34,West,270,1.6,2.2,42,0.00,,,0.00,WeatherCatV1.11B39,2013-01-08 17:54:00,
2013-01-08 12:59:00,55.4,33.9,30.33,North,0,1.6,1.6,44,0.00,,,0.00,WeatherCatV1.11B39,2013-01-08 17:59:00,
2013-01-08 13:04:00,56.3,34.7,30.33,NW,315,2.2,2.2,44,0.00,,,0.00,WeatherCatV1.11B39,2013-01-08 18:04:00,
2013-01-08 13:10:00,55.9,33.2,30.33,NNE,22,3.1,3.1,42,0.00,,,0.00,WeatherCatV1.11B39,2013-01-08 18:10:00,
2013-01-08 13:15:00,55.2,32.5,30.33,South,180,0.7,3.1,42,0.00,,,0.00,WeatherCatV1.11B39,2013-01-08 18:15:00,
2013-01-08 13:20:00,55.8,33.0,30.33,South,180,0.7,1.6,42,0.00,,,0.00,WeatherCatV1.11B39,2013-01-08 18:20:00,
2013-01-08 13:25:00,55.8,31.8,30.33,SW,225,1.6,2.2,40,0.00,,,0.00,WeatherCatV1.11B39,2013-01-08 18:25:00,
2013-01-08 13:31:00,55.4,32.7,30.33,North,0,2.2,2.2,42,0.00,,,0.00,WeatherCatV1.11B39,2013-01-08 18:31:00,
2013-01-08 13:36:00,55.8,34.2,30.33,SE,135,0.7,1.6,44,0.00,,,0.00,WeatherCatV1.11B39,2013-01-08 18:36:00,
2013-01-08 13:41:00,56.5,33.7,30.33,SW,225,2.2,3.1,42,0.00,,,0.00,WeatherCatV1.11B39,2013-01-08 18:41:00,
2013-01-08 13:46:00,56.1,33.9,30.32,South,180,1.6,2.2,43,0.00,,,0.00,WeatherCatV1.11B39,2013-01-08 18:46:00,
2013-01-08 13:52:00,56.5,34.8,30.33,South,180,1.6,1.6,44,0.00,,,0.00,WeatherCatV1.11B39,2013-01-08 18:52:00,
2013-01-08 13:57:00,56.8,34.6,30.33,SSW,202,1.6,1.6,43,0.00,,,0.00,WeatherCatV1.11B39,2013-01-08 18:57:00,
2013-01-08 14:02:00,56.3,33.5,30.33,South,180,2.2,3.1,42,0.00,,,0.00,WeatherCatV1.11B39,2013-01-08 19:02:00,
2013-01-08 14:07:00,55.2,33.1,30.33,SW,225,1.6,2.2,43,0.00,,,0.00,WeatherCatV1.11B39,2013-01-08 19:07:00,
2013-01-08 14:13:00,54.5,33.0,30.33,South,180,1.6,1.6,44,0.00,,,0.00,WeatherCatV1.11B39,2013-01-08 19:13:00,
2013-01-08 14:18:00,54.3,33.4,30.33,South,180,0.7,0.7,45,0.00,,,0.00,WeatherCatV1.11B39,2013-01-08 19:18:00,
2013-01-08 14:23:00,54.0,32.5,30.33,North,0,0.0,0.7,44,0.00,,,0.00,WeatherCatV1.11B39,2013-01-08 19:23:00,
2013-01-08 14:28:00,53.8,32.9,30.32,SW,225,0.7,1.6,45,0.00,,,0.00,WeatherCatV1.11B39,2013-01-08 19:28:00,
2013-01-08 14:34:00,54.0,32.5,30.32,SE,135,2.2,2.2,44,0.00,,,0.00,WeatherCatV1.11B39,2013-01-08 19:34:00,
2013-01-08 14:39:00,53.4,32.6,30.32,NW,315,0.7,1.6,45,0.00,,,0.00,WeatherCatV1.11B39,2013-01-08 19:39:00,
2013-01-08 14:44:00,53.1,32.3,30.33,SW,225,1.6,2.2,45,0.00,,,0.00,WeatherCatV1.11B39,2013-01-08 19:44:00,
2013-01-08 14:49:00,53.1,32.8,30.33,South,180,1.6,1.6,46,0.00,,,0.00,WeatherCatV1.11B39,2013-01-08 19:49:00,
2013-01-08 14:55:00,53.1,32.8,30.33,South,180,2.2,2.2,46,0.00,,,0.00,WeatherCatV1.11B39,2013-01-08 19:55:00,
2013-01-08 15:00:00,53.1,32.8,30.33,SW,225,0.7,1.6,46,0.00,,,0.00,WeatherCatV1.11B39,2013-01-08 20:00:00,
2013-01-08 15:05:00,52.9,33.2,30.33,South,180,0.7,0.7,47,0.00,,,0.00,WeatherCatV1.11B39,2013-01-08 20:05:00,
2013-01-08 15:11:00,52.7,33.0,30.33,South,180,1.6,1.6,47,0.00,,,0.00,WeatherCatV1.11B39,2013-01-08 20:11:00,
2013-01-08 15:16:00,52.3,32.7,30.33,South,180,2.2,2.2,47,0.00,,,0.00,WeatherCatV1.11B39,2013-01-08 20:16:00,
2013-01-08 15:21:00,52.3,32.7,30.33,South,180,0.0,0.7,47,0.00,,,0.00,WeatherCatV1.11B39,2013-01-08 20:21:00,
2013-01-08 15:26:00,52.2,33.6,30.34,South,180,0.7,0.7,49,0.00,,,0.00,WeatherCatV1.11B39,2013-01-08 20:26:00,
2013-01-08 15:32:00,51.8,33.8,30.34,SW,225,0.7,0.7,50,0.00,,,0.00,WeatherCatV1.11B39,2013-01-08 20:32:00,
2013-01-08 15:37:00,51.3,34.2,30.34,SW,225,0.7,0.7,52,0.00,,,0.00,WeatherCatV1.11B39,2013-01-08 20:37:00,
2013-01-08 15:42:00,50.9,33.9,30.33,SW,225,0.7,0.7,52,0.00,,,0.00,WeatherCatV1.11B39,2013-01-08 20:42:00,
2013-01-08 15:47:00,50.7,34.2,30.34,South,180,1.6,2.2,53,0.00,,,0.00,WeatherCatV1.11B39,2013-01-08 20:47:00,
2013-01-08 15:53:00,50.5,34.0,30.34,South,180,0.7,0.7,53,0.00,,,0.00,WeatherCatV1.11B39,2013-01-08 20:53:00,
2013-01-08 15:58:00,50.4,33.9,30.34,SW,225,0.0,0.0,53,0.00,,,0.00,WeatherCatV1.11B39,2013-01-08 20:58:00,
2013-01-08 16:03:00,50.0,34.0,30.33,SW,225,0.7,0.7,54,0.00,,,0.00,WeatherCatV1.11B39,2013-01-08 21:03:00,
2013-01-08 16:08:00,50.0,34.0,30.34,SW,225,0.0,0.0,54,0.00,,,0.00,WeatherCatV1.11B39,2013-01-08 21:08:00,
2013-01-08 16:14:00,50.0,34.0,30.33,South,180,0.0,0.0,54,0.00,,,0.00,WeatherCatV1.11B39,2013-01-08 21:14:00,
2013-01-08 16:19:00,49.6,34.1,30.33,South,180,0.0,0.0,55,0.00,,,0.00,WeatherCatV1.11B39,2013-01-08 21:19:00,
2013-01-08 16:24:00,49.3,33.8,30.33,South,180,0.0,0.0,55,0.00,,,0.00,WeatherCatV1.11B39,2013-01-08 21:24:00,
2013-01-08 16:29:00,48.9,33.5,30.33,South,180,0.0,0.0,55,0.00,,,0.00,WeatherCatV1.11B39,2013-01-08 21:29:00,
2013-01-08 16:35:00,48.6,33.6,30.33,SSW,202,0.7,0.7,56,0.00,,,0.00,WeatherCatV1.11B39,2013-01-08 21:35:00,
2013-01-08 16:40:00,48.2,33.2,30.33,South,180,0.0,0.7,56,0.00,,,0.00,WeatherCatV1.11B39,2013-01-08 21:40:00,
2013-01-08 16:45:00,47.8,33.4,30.33,South,180,0.0,0.0,57,0.00,,,0.00,WeatherCatV1.11B39,2013-01-08 21:45:00,
2013-01-08 16:50:00,47.5,33.4,30.33,South,180,0.7,0.7,58,0.00,,,0.00,WeatherCatV1.11B39,2013-01-08 21:50:00,
2013-01-08 16:56:00,47.1,33.1,30.33,South,180,0.7,0.7,58,0.00,,,0.00,WeatherCatV1.11B39,2013-01-08 21:56:00,
2013-01-08 17:01:00,46.9,32.9,30.33,South,180,0.0,0.0,58,0.00,,,0.00,WeatherCatV1.11B39,2013-01-08 22:01:00,
2013-01-08 17:06:00,46.8,32.8,30.33,South,180,0.7,0.7,58,0.00,,,0.00,WeatherCatV1.11B39,2013-01-08 22:06:00,
2013-01-08 17:11:00,46.4,32.9,30.33,South,180,0.7,0.7,59,0.00,,,0.00,WeatherCatV1.11B39,2013-01-08 22:11:00,
2013-01-08 17:17:00,46.2,32.7,30.34,South,180,0.0,0.0,59,0.00,,,0.00,WeatherCatV1.11B39,2013-01-08 22:17:00,
2013-01-08 17:22:00,45.7,32.6,30.33,South,180,0.0,0.7,60,0.00,,,0.00,WeatherCatV1.11B39,2013-01-08 22:22:00,
2013-01-08 17:27:00,45.1,32.5,30.33,South,180,0.0,0.0,61,0.00,,,0.00,WeatherCatV1.11B39,2013-01-08 22:27:00,
2013-01-08 17:32:00,44.8,32.2,30.33,South,180,0.7,0.7,61,0.00,,,0.00,WeatherCatV1.11B39,2013-01-08 22:32:00,
2013-01-08 17:38:00,44.6,32.4,30.33,South,180,0.7,0.7,62,0.00,,,0.00,WeatherCatV1.11B39,2013-01-08 22:38:00,
2013-01-08 17:43:00,44.8,33.0,30.33,South,180,0.0,0.0,63,0.00,,,0.00,WeatherCatV1.11B39,2013-01-08 22:43:00,
2013-01-08 17:48:00,44.8,33.0,30.33,South,180,0.0,0.0,63,0.00,,,0.00,WeatherCatV1.11B39,2013-01-08 22:48:00,
2013-01-08 17:53:00,44.4,33.0,30.33,South,180,0.0,0.0,64,0.00,,,0.00,WeatherCatV1.11B39,2013-01-08 22:53:00,
2013-01-08 17:59:00,44.1,32.7,30.33,South,180,0.0,0.0,64,0.00,,,0.00,WeatherCatV1.11B39,2013-01-08 22:59:00,
2013-01-08 18:04:00,43.7,32.7,30.34,South,180,0.0,0.0,65,0.00,,,0.00,WeatherCatV1.11B39,2013-01-08 23:04:00,
2013-01-08 18:09:00,43.3,32.4,30.33,South,180,0.0,0.0,65,0.00,,,0.00,WeatherCatV1.11B39,2013-01-08 23:09:00,
2013-01-08 18:14:00,43.2,32.6,30.34,South,180,0.0,0.0,66,0.00,,,0.00,WeatherCatV1.11B39,2013-01-08 23:14:00,
2013-01-08 18:20:00,43.0,32.4,30.34,South,180,0.0,0.0,66,0.00,,,0.00,WeatherCatV1.11B39,2013-01-08 23:20:00,
2013-01-08 18:25:00,42.6,32.4,30.34,South,180,0.0,0.0,67,0.00,,,0.00,WeatherCatV1.11B39,2013-01-08 23:25:00,
2013-01-08 18:30:00,42.3,32.5,30.35,South,180,0.0,0.0,68,0.00,,,0.00,WeatherCatV1.11B39,2013-01-08 23:30:00,
2013-01-08 18:35:00,42.1,32.3,30.35,South,180,0.0,0.0,68,0.00,,,0.00,WeatherCatV1.11B39,2013-01-08 23:35:00,
2013-01-08 18:41:00,42.1,32.7,30.35,South,180,0.0,0.0,69,0.00,,,0.00,WeatherCatV1.11B39,2013-01-08 23:41:00,
2013-01-08 18:46:00,42.1,32.7,30.35,South,180,0.0,0.0,69,0.00,,,0.00,WeatherCatV1.11B39,2013-01-08 23:46:00,
2013-01-08 18:51:00,42.1,33.0,30.35,South,180,0.0,0.0,70,0.00,,,0.00,WeatherCatV1.11B39,2013-01-08 23:51:00,
2013-01-08 18:56:00,42.1,33.0,30.35,South,180,0.0,0.0,70,0.00,,,0.00,WeatherCatV1.11B39,2013-01-08 23:56:00,
2013-01-08 19:02:00,41.9,33.2,30.35,South,180,0.0,0.0,71,0.00,,,0.00,WeatherCatV1.11B39,2013-01-09 00:02:00,
2013-01-08 19:07:00,42.1,33.4,30.36,North,0,0.0,0.0,71,0.00,,,0.00,WeatherCatV1.11B39,2013-01-09 00:07:00,
2013-01-08 19:12:00,41.9,33.2,30.35,North,0,0.0,0.0,71,0.00,,,0.00,WeatherCatV1.11B39,2013-01-09 00:12:00,
2013-01-08 19:17:00,41.9,33.5,30.35,North,0,0.0,0.0,72,0.00,,,0.00,WeatherCatV1.11B39,2013-01-09 00:17:00,
2013-01-08 19:23:00,41.9,33.5,30.35,North,0,0.0,0.0,72,0.00,,,0.00,WeatherCatV1.11B39,2013-01-09 00:23:00,
2013-01-08 19:28:00,41.7,33.4,30.35,NE,45,0.0,0.0,72,0.00,,,0.00,WeatherCatV1.11B39,2013-01-09 00:28:00,
2013-01-08 19:33:00,42.1,34.1,30.35,SW,225,1.6,1.6,73,0.00,,,0.00,WeatherCatV1.11B39,2013-01-09 00:33:00,
2013-01-08 19:38:00,42.6,34.6,30.35,South,180,0.0,0.7,73,0.00,,,0.00,WeatherCatV1.11B39,2013-01-09 00:38:00,
2013-01-08 19:44:00,42.8,33.7,30.35,South,180,0.7,0.7,70,0.00,,,0.00,WeatherCatV1.11B39,2013-01-09 00:44:00,
2013-01-08 19:49:00,42.8,33.7,30.35,South,180,0.0,0.0,70,0.00,,,0.00,WeatherCatV1.11B39,2013-01-09 00:49:00,
2013-01-08 19:54:00,42.4,33.7,30.35,South,180,0.0,0.7,71,0.00,,,0.00,WeatherCatV1.11B39,2013-01-09 00:54:00,
2013-01-08 19:59:00,42.4,34.1,30.34,South,180,0.7,0.7,72,0.00,,,0.00,WeatherCatV1.11B39,2013-01-09 00:59:00,
2013-01-08 20:05:00,42.8,33.7,30.34,South,180,0.0,0.0,70,0.00,,,0.00,WeatherCatV1.11B39,2013-01-09 01:05:00,
2013-01-08 20:10:00,42.8,33.7,30.34,South,180,0.0,0.0,70,0.00,,,0.00,WeatherCatV1.11B39,2013-01-09 01:10:00,
2013-01-08 20:15:00,42.4,33.7,30.34,South,180,0.0,0.7,71,0.00,,,0.00,WeatherCatV1.11B39,2013-01-09 01:15:00,
2013-01-08 20:20:00,42.4,33.7,30.33,South,180,0.0,0.0,71,0.00,,,0.00,WeatherCatV1.11B39,2013-01-09 01:20:00,
2013-01-08 20:26:00,42.6,34.2,30.33,South,180,0.7,0.7,72,0.00,,,0.00,WeatherCatV1.11B39,2013-01-09 01:26:00,
2013-01-08 20:31:00,43.0,33.9,30.33,SW,225,0.7,0.7,70,0.00,,,0.00,WeatherCatV1.11B39,2013-01-09 01:31:00,
2013-01-08 20:36:00,43.0,33.9,30.33,SW,225,0.7,0.7,70,0.00,,,0.00,WeatherCatV1.11B39,2013-01-09 01:36:00,
2013-01-08 20:41:00,42.8,33.7,30.34,SW,225,0.0,0.0,70,0.00,,,0.00,WeatherCatV1.11B39,2013-01-09 01:41:00,
2013-01-08 20:47:00,42.4,34.1,30.34,SW,225,0.0,0.0,72,0.00,,,0.00,WeatherCatV1.11B39,2013-01-09 01:47:00,
2013-01-08 20:52:00,42.3,33.9,30.35,SW,225,0.0,0.0,72,0.00,,,0.00,WeatherCatV1.11B39,2013-01-09 01:52:00,
2013-01-08 20:57:00,42.1,34.1,30.35,SW,225,0.0,0.0,73,0.00,,,0.00,WeatherCatV1.11B39,2013-01-09 01:57:00,
2013-01-08 21:02:00,42.1,34.1,30.35,SW,225,0.0,0.0,73,0.00,,,0.00,WeatherCatV1.11B39,2013-01-09 02:02:00,
2013-01-08 21:08:00,41.9,33.9,30.36,SW,225,0.0,0.0,73,0.00,,,0.00,WeatherCatV1.11B39,2013-01-09 02:08:00,
2013-01-08 21:13:00,41.5,33.5,30.36,SW,225,0.0,0.0,73,0.00,,,0.00,WeatherCatV1.11B39,2013-01-09 02:13:00,
2013-01-08 21:18:00,41.4,33.4,30.36,South,180,0.0,0.0,73,0.00,,,0.00,WeatherCatV1.11B39,2013-01-09 02:18:00,
2013-01-08 21:23:00,41.4,33.7,30.36,SW,225,0.7,1.6,74,0.00,,,0.00,WeatherCatV1.11B39,2013-01-09 02:23:00,
2013-01-08 21:29:00,41.7,33.7,30.36,SE,135,0.0,0.0,73,0.00,,,0.00,WeatherCatV1.11B39,2013-01-09 02:29:00,
2013-01-08 21:34:00,41.7,33.7,30.36,SE,135,0.0,0.0,73,0.00,,,0.00,WeatherCatV1.11B39,2013-01-09 02:34:00,
2013-01-08 21:39:00,41.5,33.5,30.35,SE,135,0.0,0.0,73,0.00,,,0.00,WeatherCatV1.11B39,2013-01-09 02:39:00,
2013-01-08 21:44:00,41.2,33.2,30.35,SE,135,0.0,0.0,73,0.00,,,0.00,WeatherCatV1.11B39,2013-01-09 02:44:00,
2013-01-08 21:50:00,41.2,33.2,30.35,SE,135,0.0,0.0,73,0.00,,,0.00,WeatherCatV1.11B39,2013-01-09 02:50:00,
2013-01-08 21:55:00,41.2,33.2,30.35,SE,135,0.0,0.0,73,0.00,,,0.00,WeatherCatV1.11B39,2013-01-09 02:55:00,
2013-01-08 22:00:00,41.2,33.2,30.35,SE,135,0.0,0.0,73,0.00,,,0.00,WeatherCatV1.11B39,2013-01-09 03:00:00,
2013-01-08 22:05:00,41.5,33.5,30.35,South,180,0.0,0.0,73,0.00,,,0.00,WeatherCatV1.11B39,2013-01-09 03:05:00,
2013-01-08 22:11:00,41.9,33.9,30.35,South,180,0.7,0.7,73,0.00,,,0.00,WeatherCatV1.11B39,2013-01-09 03:11:00,
2013-01-08 22:16:00,41.9,33.5,30.35,SW,225,0.0,0.0,72,0.00,,,0.00,WeatherCatV1.11B39,2013-01-09 03:16:00,
2013-01-08 22:21:00,41.9,33.5,30.35,SW,225,0.0,0.0,72,0.00,,,0.00,WeatherCatV1.11B39,2013-01-09 03:21:00,
2013-01-08 22:26:00,41.4,33.0,30.35,South,180,0.0,0.7,72,0.00,,,0.00,WeatherCatV1.11B39,2013-01-09 03:26:00,
2013-01-08 22:32:00,41.2,33.2,30.35,South,180,0.0,0.0,73,0.00,,,0.00,WeatherCatV1.11B39,2013-01-09 03:32:00,
2013-01-08 22:37:00,41.0,33.0,30.35,South,180,0.7,0.7,73,0.00,,,0.00,WeatherCatV1.11B39,2013-01-09 03:37:00,
2013-01-08 22:42:00,40.6,33.0,30.35,South,180,0.0,0.0,74,0.00,,,0.00,WeatherCatV1.11B39,2013-01-09 03:42:00,
2013-01-08 22:47:00,40.1,32.5,30.35,South,180,0.0,0.0,74,0.00,,,0.00,WeatherCatV1.11B39,2013-01-09 03:47:00,
2013-01-08 22:53:00,39.6,32.0,30.35,South,180,0.0,0.0,74,0.00,,,0.00,WeatherCatV1.11B39,2013-01-09 03:53:00,
2013-01-08 22:58:00,39.0,31.8,30.35,South,180,0.0,0.0,75,0.00,,,0.00,WeatherCatV1.11B39,2013-01-09 03:58:00,
2013-01-08 23:03:00,38.8,31.9,30.35,South,180,0.0,0.0,76,0.00,,,0.00,WeatherCatV1.11B39,2013-01-09 04:03:00,
2013-01-08 23:08:00,38.7,32.1,30.34,South,180,0.0,0.0,77,0.00,,,0.00,WeatherCatV1.11B39,2013-01-09 04:08:00,
2013-01-08 23:14:00,38.5,31.9,30.34,South,180,0.0,0.0,77,0.00,,,0.00,WeatherCatV1.11B39,2013-01-09 04:14:00,
2013-01-08 23:19:00,38.1,31.6,30.35,South,180,0.0,0.0,77,0.00,,,0.00,WeatherCatV1.11B39,2013-01-09 04:19:00,
2013-01-08 23:24:00,37.9,31.4,30.34,South,180,0.0,0.0,77,0.00,,,0.00,WeatherCatV1.11B39,2013-01-09 04:24:00,
2013-01-08 23:29:00,37.8,31.5,30.34,South,180,0.0,0.0,78,0.00,,,0.00,WeatherCatV1.11B39,2013-01-09 04:29:00,
2013-01-08 23:35:00,37.8,31.5,30.35,South,180,0.0,0.0,78,0.00,,,0.00,WeatherCatV1.11B39,2013-01-09 04:35:00,
2013-01-08 23:40:00,37.4,31.5,30.34,South,180,0.7,0.7,79,0.00,,,0.00,WeatherCatV1.11B39,2013-01-09 04:40:00,
2013-01-08 23:45:00,37.6,32.0,30.34,South,180,0.7,0.7,80,0.00,,,0.00,WeatherCatV1.11B39,2013-01-09 04:45:00,
2013-01-08 23:50:00,37.6,32.0,30.34,South,180,0.0,0.0,80,0.00,,,0.00,WeatherCatV1.11B39,2013-01-09 04:50:00,
2013-01-08 23:56:00,37.4,31.8,30.34,South,180,0.0,0.0,80,0.00,,,0.00,WeatherCatV1.11B39,2013-01-09 04:56:00,